Change the Weather History Date:

Tuesday, July 16, 2013

  Actual Average Record
Temperature  
Mean Temperature 83 °F 82 °F  
Max Temperature 88 °F 91 °F 98 °F (1981)
Min Temperature 77 °F 73 °F 67 °F (1965)
Degree Days  
Heating Degree Days 0 0  
Month to date heating degree days 0 0  
Since 1 June heating degree days 0 0  
Since 1 July heating degree days 0 0  
Cooling Degree Days 18 17  
Month to date cooling degree days 275 261  
Year to date cooling degree days 1634 1449  
Since 1 June cooling degree days 773 723  
Growing Degree Days 32 (Base 50)    
Moisture  
Dew Point 73 °F    
Average Humidity 74    
Maximum Humidity 85    
Minimum Humidity 63    
Precipitation  
Precipitation 0.36 in 0.17 in 1.73 in (2008)
Month to date precipitation 2.79 3.00  
Year to date precipitation 24.86 23.21  
Sea Level Pressure  
Sea Level Pressure 30.14 in    
Wind  
Wind Speed 9 mph (East)    
Max Wind Speed 25 mph    
Max Gust Speed 39 mph    
Visibility 10 miles    
Events Rain    
T = Trace of Precipitation, MM = Missing Value Source: NWS Daily Summary

Daily Weather History Graph

Daily Weather History Graph

Search for Another Location

Airport or City:

Trip Planner

Search our weather history database for the weather conditions in past years. The results will help you decide how hot, cold, wet, or windy it might be!

Date:

Astronomy

Jul. 16, 2013 Rise Set
Actual Time 6:36 AM EDT 8:20 PM EDT
Civil Twilight 6:10 AM EDT 8:46 PM EDT
Nautical Twilight 5:38 AM EDT 9:18 PM EDT
Astronomical Twilight 5:05 AM EDT 9:51 PM EDT
Moon 2:12 PM EDT (7/16) 12:50 AM EDT (7/16)
Length of Visible Light 14h 36m
Length of Day
13h 44m
First Quarter, 56% of the Moon is Illuminated
Jul 16
First Quarter
Jul 22
Full
Jul 29
Last Quarter
Aug 6
New
Aug 14
First Quarter

Hourly Weather History & Observations

Time (EDT) Temp. Heat Index Dew Point Humidity Pressure Visibility Wind Dir Wind Speed Gust Speed Precip Events Conditions
12:53 AM 80.1 °F 83.8 °F 72.0 °F 76% 30.12 in 10.0 mi ESE 8.1 mph - N/A   Partly Cloudy
1:53 AM 80.1 °F 83.8 °F 72.0 °F 76% 30.12 in 10.0 mi East 10.4 mph - N/A   Partly Cloudy
2:53 AM 80.1 °F 84.2 °F 73.0 °F 79% 30.10 in 10.0 mi East 6.9 mph - N/A   Clear
3:53 AM 79.0 °F - 73.0 °F 82% 30.11 in 10.0 mi East 8.1 mph - N/A   Mostly Cloudy
4:04 AM 78.8 °F - 73.4 °F 83% 30.11 in 10.0 mi East 8.1 mph - N/A   Scattered Clouds
4:53 AM 80.1 °F 84.2 °F 73.0 °F 79% 30.11 in 10.0 mi East 9.2 mph - N/A   Partly Cloudy
5:53 AM 79.0 °F - 73.0 °F 82% 30.11 in 10.0 mi ENE 6.9 mph - N/A   Scattered Clouds
6:53 AM 79.0 °F - 73.0 °F 82% 30.12 in 10.0 mi East 6.9 mph - N/A   Clear
7:53 AM 82.0 °F 86.7 °F 72.0 °F 71% 30.13 in 10.0 mi East 10.4 mph - N/A   Partly Cloudy
8:53 AM 82.9 °F 88.8 °F 73.0 °F 72% 30.14 in 10.0 mi East 9.2 mph - N/A   Partly Cloudy
9:53 AM 84.9 °F 92.1 °F 73.9 °F 69% 30.16 in 10.0 mi East 11.5 mph - N/A   Partly Cloudy
10:53 AM 86.0 °F 93.8 °F 73.9 °F 67% 30.16 in 10.0 mi East 11.5 mph - N/A   Partly Cloudy
11:53 AM 87.1 °F 95.4 °F 73.9 °F 65% 30.16 in 10.0 mi ENE 13.8 mph - N/A   Scattered Clouds
12:53 PM 87.1 °F 95.4 °F 73.9 °F 65% 30.17 in 10.0 mi East 16.1 mph - N/A   Scattered Clouds
1:27 PM 82.4 °F 88.2 °F 73.4 °F 74% 30.16 in 10.0 mi East 8.1 mph 33.4 mph 0.18 in Rain Light Rain
1:53 PM 84.0 °F 91.9 °F 75.0 °F 74% 30.16 in 10.0 mi East 11.5 mph - 0.18 in   Scattered Clouds
2:53 PM 84.0 °F 91.2 °F 73.9 °F 72% 30.15 in 10.0 mi East 13.8 mph - 0.01 in   Scattered Clouds
3:23 PM 80.6 °F 84.6 °F 71.6 °F 74% 30.16 in 10.0 mi South 12.7 mph - N/A   Mostly Cloudy
3:53 PM 81.0 °F 85.2 °F 72.0 °F 74% 30.16 in 10.0 mi South 10.4 mph - N/A   Scattered Clouds
4:29 PM 80.6 °F 84.6 °F 71.6 °F 74% 30.16 in 2.0 mi SSE 13.8 mph 27.6 mph 0.06 in Rain Rain
4:53 PM 77.0 °F - 72.0 °F 84% 30.16 in 10.0 mi South 5.8 mph - 0.12 in Rain Light Rain
5:16 PM 77.0 °F - 71.6 °F 83% 30.15 in 2.5 mi SE 3.5 mph - 0.05 in Rain Light Rain
5:24 PM 77.0 °F - 71.6 °F 83% 30.14 in 10.0 mi SE 5.8 mph - 0.05 in   Partly Cloudy
5:53 PM 79.0 °F - 72.0 °F 79% 30.14 in 10.0 mi ENE 9.2 mph - 0.05 in Rain Light Rain
6:53 PM 79.0 °F - 72.0 °F 79% 30.13 in 10.0 mi ESE 5.8 mph - 0.00 in   Clear
7:53 PM 78.1 °F - 72.0 °F 81% 30.14 in 10.0 mi East 6.9 mph - N/A   Clear
8:53 PM 78.1 °F - 73.0 °F 84% 30.14 in 10.0 mi ENE 4.6 mph - N/A   Clear
9:53 PM 78.1 °F - 73.0 °F 84% 30.16 in 10.0 mi Calm Calm - N/A   Clear
10:53 PM 78.1 °F - 73.0 °F 84% 30.16 in 10.0 mi NNE 3.5 mph - N/A   Clear
11:53 PM 78.1 °F - 73.0 °F 84% 30.16 in 10.0 mi NE 8.1 mph - N/A   Mostly Cloudy